Terminal Aerodrome Forecast
Issued by NWS Topeka, KS

Home | Current Version | Previous Version | Text Only | Print | Product List | Glossary Off
Versions: 1 2 3 4 5 6 7 8 9 10 11 12 13 14 15 16 17 18 19

000
FTUS43 KTOP 281352 AAA
TAFTOP
TAF AMD
KTOP 281352Z 2814/2912 19010KT P6SM FEW080
     FM290000 18008KT P6SM VCTS SCT070CB
     FM290300 20007KT P6SM VCTS SCT050CB BKN150
     FM291000 01006KT P6SM SCT025 BKN050=

USA.gov is the U.S. government's official web portal to all federal, state and local government web resources and services.